Year,Month,Day,Hour,Minute,Value (Times are PST for temperature in C)
2020,04,06,00,00,5.20
2020,04,06,00,01,5.20
2020,04,06,00,02,5.20
2020,04,06,00,03,5.10
2020,04,06,00,04,5.10
2020,04,06,00,05,5.10
2020,04,06,00,06,5.10
2020,04,06,00,07,5.10
2020,04,06,00,08,5.10
2020,04,06,00,09,5.00
2020,04,06,00,10,5.00
2020,04,06,00,11,5.00
2020,04,06,00,12,5.00
2020,04,06,00,13,5.00
2020,04,06,00,14,5.00
2020,04,06,00,15,4.90
2020,04,06,00,16,4.90
2020,04,06,00,17,4.90
2020,04,06,00,18,4.90
2020,04,06,00,19,4.90
2020,04,06,00,20,4.80
2020,04,06,00,21,4.80
2020,04,06,00,22,4.80
2020,04,06,00,23,4.80
2020,04,06,00,24,4.70
2020,04,06,00,25,4.70
2020,04,06,00,26,4.70
2020,04,06,00,27,4.70
2020,04,06,00,28,4.60
2020,04,06,00,29,4.60
2020,04,06,00,30,4.60
2020,04,06,00,31,4.60
2020,04,06,00,32,4.60
2020,04,06,00,33,4.60
2020,04,06,00,34,4.60
2020,04,06,00,35,4.60
2020,04,06,00,36,4.50
2020,04,06,00,37,4.50
2020,04,06,00,38,4.50
2020,04,06,00,39,4.50
2020,04,06,00,40,4.50
2020,04,06,00,41,4.40
2020,04,06,00,42,4.40
2020,04,06,00,43,4.40
2020,04,06,00,44,4.40
2020,04,06,00,45,4.40
2020,04,06,00,46,4.40
2020,04,06,00,47,4.30
2020,04,06,00,48,4.30
2020,04,06,00,49,4.30
2020,04,06,00,50,4.30
2020,04,06,00,51,4.30
2020,04,06,00,52,4.20
2020,04,06,00,53,4.20
2020,04,06,00,54,4.20
2020,04,06,00,55,4.10
2020,04,06,00,56,4.10
2020,04,06,00,57,4.10
2020,04,06,00,58,4.00
2020,04,06,00,59,4.00
2020,04,06,01,00,4.00
2020,04,06,01,01,3.90
2020,04,06,01,02,3.90
2020,04,06,01,03,3.90
2020,04,06,01,04,3.90
2020,04,06,01,05,3.90
2020,04,06,01,06,3.90
2020,04,06,01,07,3.90
2020,04,06,01,08,3.90
2020,04,06,01,09,3.90
2020,04,06,01,10,3.80
2020,04,06,01,11,3.80
2020,04,06,01,12,3.80
2020,04,06,01,13,3.80
2020,04,06,01,14,3.80
2020,04,06,01,15,3.80
2020,04,06,01,16,3.80
2020,04,06,01,17,3.80
2020,04,06,01,18,3.90
2020,04,06,01,19,3.90
2020,04,06,01,20,3.90
2020,04,06,01,21,3.90
2020,04,06,01,22,3.90
2020,04,06,01,23,3.90
2020,04,06,01,24,3.90
2020,04,06,01,25,3.90
2020,04,06,01,26,3.90
2020,04,06,01,27,3.80
2020,04,06,01,28,3.80
2020,04,06,01,29,3.80
2020,04,06,01,30,3.80
2020,04,06,01,31,3.80
2020,04,06,01,32,3.70
2020,04,06,01,33,3.70
2020,04,06,01,34,3.70
2020,04,06,01,35,3.70
2020,04,06,01,36,3.70
2020,04,06,01,37,3.70
2020,04,06,01,38,3.70
2020,04,06,01,39,3.70
2020,04,06,01,40,3.60
2020,04,06,01,41,3.60
2020,04,06,01,42,3.60
2020,04,06,01,43,3.60
2020,04,06,01,44,3.60
2020,04,06,01,45,3.60
2020,04,06,01,46,3.60
2020,04,06,01,47,3.60
2020,04,06,01,48,3.60
2020,04,06,01,49,3.60
2020,04,06,01,50,3.50
2020,04,06,01,51,3.60
2020,04,06,01,52,3.50
2020,04,06,01,53,3.50
2020,04,06,01,54,3.50
2020,04,06,01,55,3.50
2020,04,06,01,56,3.50
2020,04,06,01,57,3.40
2020,04,06,01,58,3.40
2020,04,06,01,59,3.40
2020,04,06,02,00,3.40
2020,04,06,02,01,3.40
2020,04,06,02,02,3.40
2020,04,06,02,03,3.40
2020,04,06,02,04,3.40
2020,04,06,02,05,3.40
2020,04,06,02,06,3.30
2020,04,06,02,07,3.30
2020,04,06,02,08,3.30
2020,04,06,02,09,3.30
2020,04,06,02,10,3.30
2020,04,06,02,11,3.30
2020,04,06,02,12,3.30
2020,04,06,02,13,3.30
2020,04,06,02,14,3.30
2020,04,06,02,15,3.30
2020,04,06,02,16,3.30
2020,04,06,02,17,3.30
2020,04,06,02,18,3.30
2020,04,06,02,19,3.30
2020,04,06,02,20,3.30
2020,04,06,02,21,3.30
2020,04,06,02,22,3.30
2020,04,06,02,23,3.30
2020,04,06,02,24,3.30
2020,04,06,02,25,3.30
2020,04,06,02,26,3.30
2020,04,06,02,27,3.30
2020,04,06,02,28,3.30
2020,04,06,02,29,3.30
2020,04,06,02,30,3.30
2020,04,06,02,31,3.30
2020,04,06,02,32,3.30
2020,04,06,02,33,3.30
2020,04,06,02,34,3.30
2020,04,06,02,35,3.30
2020,04,06,02,36,3.30
2020,04,06,02,37,3.30
2020,04,06,02,38,3.40
2020,04,06,02,39,3.40
2020,04,06,02,40,3.40
2020,04,06,02,41,3.40
2020,04,06,02,42,3.40
2020,04,06,02,43,3.40
2020,04,06,02,44,3.30
2020,04,06,02,45,3.30
2020,04,06,02,46,3.30
2020,04,06,02,47,3.30
2020,04,06,02,48,3.30
2020,04,06,02,49,3.20
2020,04,06,02,50,3.20
2020,04,06,02,51,3.20
2020,04,06,02,52,3.20
2020,04,06,02,53,3.20
2020,04,06,02,54,3.20
2020,04,06,02,55,3.20
2020,04,06,02,56,3.20
2020,04,06,02,57,3.30
2020,04,06,02,58,3.30
2020,04,06,02,59,3.30
2020,04,06,03,00,3.30
2020,04,06,03,01,3.30
2020,04,06,03,02,3.30
2020,04,06,03,03,3.30
2020,04,06,03,04,3.30
2020,04,06,03,05,3.40
2020,04,06,03,06,3.30
2020,04,06,03,07,3.30
2020,04,06,03,08,3.30
2020,04,06,03,09,3.30
2020,04,06,03,10,3.30
2020,04,06,03,11,3.30
2020,04,06,03,12,3.30
2020,04,06,03,13,3.30
2020,04,06,03,14,3.30
2020,04,06,03,15,3.30
2020,04,06,03,16,3.30
2020,04,06,03,17,3.30
2020,04,06,03,18,3.20
2020,04,06,03,19,3.20
2020,04,06,03,20,3.20
2020,04,06,03,21,3.20
2020,04,06,03,22,3.20
2020,04,06,03,23,3.20
2020,04,06,03,24,3.20
2020,04,06,03,25,3.20
2020,04,06,03,26,3.20
2020,04,06,03,27,3.20
2020,04,06,03,28,3.20
2020,04,06,03,29,3.20
2020,04,06,03,30,3.20
2020,04,06,03,31,3.20
2020,04,06,03,32,3.10
2020,04,06,03,33,3.10
2020,04,06,03,34,3.10
2020,04,06,03,35,3.10
2020,04,06,03,36,3.10
2020,04,06,03,37,3.10
2020,04,06,03,38,3.00
2020,04,06,03,39,3.00
2020,04,06,03,40,3.00
2020,04,06,03,41,3.00
2020,04,06,03,42,3.00
2020,04,06,03,43,3.00
2020,04,06,03,44,3.00
2020,04,06,03,45,2.90
2020,04,06,03,46,2.90
2020,04,06,03,47,2.90
2020,04,06,03,48,2.90
2020,04,06,03,49,2.90
2020,04,06,03,50,2.90
2020,04,06,03,51,2.90
2020,04,06,03,52,2.90
2020,04,06,03,53,2.90
2020,04,06,03,54,2.80
2020,04,06,03,55,2.80
2020,04,06,03,56,2.80
2020,04,06,03,57,2.80
2020,04,06,03,58,2.80
2020,04,06,03,59,2.80
2020,04,06,04,00,2.80
2020,04,06,04,01,2.80
2020,04,06,04,02,2.80
2020,04,06,04,03,2.80
2020,04,06,04,04,2.80
2020,04,06,04,05,2.80
2020,04,06,04,06,2.80
2020,04,06,04,07,2.80
2020,04,06,04,08,2.80
2020,04,06,04,09,2.80
2020,04,06,04,10,2.80
2020,04,06,04,11,2.80
2020,04,06,04,12,2.70
2020,04,06,04,13,2.70
2020,04,06,04,14,2.70
2020,04,06,04,15,2.70
2020,04,06,04,16,2.70
2020,04,06,04,17,2.70
2020,04,06,04,18,2.70
2020,04,06,04,19,2.70
2020,04,06,04,20,2.70
2020,04,06,04,21,2.70
2020,04,06,04,22,2.60
2020,04,06,04,23,2.60
2020,04,06,04,24,2.60
2020,04,06,04,25,2.60
2020,04,06,04,26,2.60
2020,04,06,04,27,2.60
2020,04,06,04,28,2.50
2020,04,06,04,29,2.50
2020,04,06,04,30,2.50
2020,04,06,04,31,2.40
2020,04,06,04,32,2.40
2020,04,06,04,33,2.40
2020,04,06,04,34,2.40
2020,04,06,04,35,2.40
2020,04,06,04,36,2.40
2020,04,06,04,37,2.40
2020,04,06,04,38,2.40
2020,04,06,04,39,2.40
2020,04,06,04,40,2.40
2020,04,06,04,41,2.40
2020,04,06,04,42,2.40
2020,04,06,04,43,2.40
2020,04,06,04,44,2.40
2020,04,06,04,45,2.40
2020,04,06,04,46,2.30
2020,04,06,04,47,2.30
2020,04,06,04,48,2.30
2020,04,06,04,49,2.30
2020,04,06,04,50,2.30
2020,04,06,04,51,2.30
2020,04,06,04,52,2.30
2020,04,06,04,53,2.30
2020,04,06,04,54,2.30
2020,04,06,04,55,2.30
2020,04,06,04,56,2.30
2020,04,06,04,57,2.30
2020,04,06,04,58,2.30
2020,04,06,04,59,2.30
2020,04,06,05,00,2.30
2020,04,06,05,01,2.30
2020,04,06,05,02,2.30
2020,04,06,05,03,2.30
2020,04,06,05,04,2.20
2020,04,06,05,05,2.20
2020,04,06,05,06,2.20
2020,04,06,05,07,2.20
2020,04,06,05,08,2.20
2020,04,06,05,09,2.20
2020,04,06,05,10,2.20
2020,04,06,05,11,2.20
2020,04,06,05,12,2.20
2020,04,06,05,13,2.20
2020,04,06,05,14,2.20
2020,04,06,05,15,2.20
2020,04,06,05,16,2.20
2020,04,06,05,17,2.20
2020,04,06,05,18,2.20
2020,04,06,05,19,2.20
2020,04,06,05,20,2.20
2020,04,06,05,21,2.20
2020,04,06,05,22,2.20
2020,04,06,05,23,2.20
2020,04,06,05,24,2.20
2020,04,06,05,25,2.20
2020,04,06,05,26,2.20
2020,04,06,05,27,2.20
2020,04,06,05,28,2.20
2020,04,06,05,29,2.20
2020,04,06,05,30,2.10
2020,04,06,05,31,2.20
2020,04,06,05,32,2.10
2020,04,06,05,33,2.10
2020,04,06,05,34,2.10
2020,04,06,05,35,2.10
2020,04,06,05,36,2.10
2020,04,06,05,37,2.10
2020,04,06,05,38,2.10
2020,04,06,05,39,2.10
2020,04,06,05,40,2.10
2020,04,06,05,41,2.10
2020,04,06,05,42,2.10
2020,04,06,05,43,2.10
2020,04,06,07,59,2.60
2020,04,06,08,00,2.70
2020,04,06,08,01,2.70
2020,04,06,08,02,2.70
2020,04,06,08,03,2.80
2020,04,06,08,04,2.80
2020,04,06,08,05,2.90
2020,04,06,08,06,2.90
2020,04,06,08,07,2.90
2020,04,06,08,08,3.00
2020,04,06,08,09,3.10
2020,04,06,08,10,3.10
2020,04,06,08,11,3.10
2020,04,06,08,12,3.20
2020,04,06,08,13,3.20
2020,04,06,08,14,3.20
2020,04,06,08,15,3.30
2020,04,06,08,16,3.30
2020,04,06,08,17,3.40
2020,04,06,08,18,3.40
2020,04,06,08,19,3.50
2020,04,06,08,20,3.50
2020,04,06,08,21,3.60
2020,04,06,08,22,3.70
2020,04,06,08,23,3.70
2020,04,06,08,24,3.70
2020,04,06,08,25,3.80
2020,04,06,08,26,3.80
2020,04,06,08,27,3.80
2020,04,06,08,28,3.90
2020,04,06,08,29,3.90
2020,04,06,08,30,4.00
2020,04,06,08,31,4.00
2020,04,06,08,32,4.10
2020,04,06,08,33,4.10
2020,04,06,08,34,4.10
2020,04,06,08,35,4.20
2020,04,06,08,36,4.20
2020,04,06,08,37,4.30
2020,04,06,08,38,4.30
2020,04,06,08,39,4.30
2020,04,06,08,40,4.40
2020,04,06,08,41,4.40
2020,04,06,08,42,4.50
2020,04,06,08,43,4.50
2020,04,06,08,44,4.60
2020,04,06,08,45,4.60
2020,04,06,08,46,4.70
2020,04,06,08,47,4.70
2020,04,06,08,48,4.80
2020,04,06,08,49,4.90
2020,04,06,08,50,4.90
2020,04,06,08,51,5.00
2020,04,06,08,52,5.10
2020,04,06,08,53,5.10
2020,04,06,08,54,5.20
2020,04,06,08,55,5.30
2020,04,06,08,56,5.30
2020,04,06,08,57,5.40
2020,04,06,08,58,5.50
2020,04,06,08,59,5.50
2020,04,06,09,00,5.60
2020,04,06,09,01,5.70
2020,04,06,09,02,5.70
2020,04,06,09,03,5.80
2020,04,06,09,04,5.80
2020,04,06,09,05,5.90
2020,04,06,09,06,6.00
2020,04,06,09,07,6.00
2020,04,06,09,08,6.10
2020,04,06,09,09,6.20
2020,04,06,09,10,6.20
2020,04,06,09,11,6.30
2020,04,06,09,12,6.40
2020,04,06,09,13,6.40
2020,04,06,09,14,6.50
2020,04,06,09,15,6.60
2020,04,06,09,16,6.60
2020,04,06,09,17,6.70
2020,04,06,09,18,6.70
2020,04,06,09,19,6.80
2020,04,06,09,20,6.80
2020,04,06,09,21,6.90
2020,04,06,09,22,6.90
2020,04,06,09,23,7.00
2020,04,06,09,24,7.10
2020,04,06,09,25,7.10
2020,04,06,09,26,7.20
2020,04,06,09,27,7.20
2020,04,06,09,28,7.30
2020,04,06,09,29,7.30
2020,04,06,09,30,7.30
2020,04,06,09,31,7.40
2020,04,06,09,32,7.40
2020,04,06,09,33,7.40
2020,04,06,09,34,7.50
2020,04,06,09,35,7.50
2020,04,06,09,36,7.60
2020,04,06,09,37,7.60
2020,04,06,09,38,7.70
2020,04,06,09,39,7.70
2020,04,06,09,40,7.70
2020,04,06,09,41,7.80
2020,04,06,09,42,7.80
2020,04,06,09,43,7.90
2020,04,06,09,44,7.90
2020,04,06,09,45,7.90
2020,04,06,09,46,7.90
2020,04,06,09,47,8.00
2020,04,06,09,48,8.00
2020,04,06,09,49,8.10
2020,04,06,09,50,8.10
2020,04,06,09,51,8.10
2020,04,06,09,52,8.10
2020,04,06,09,53,8.20
2020,04,06,09,54,8.20
2020,04,06,09,55,8.30
2020,04,06,09,56,8.30
2020,04,06,09,57,8.40
2020,04,06,09,58,8.50
2020,04,06,09,59,8.50
2020,04,06,10,00,8.60
2020,04,06,10,01,8.60
2020,04,06,10,02,8.60
2020,04,06,10,03,8.60
2020,04,06,10,04,8.60
2020,04,06,10,05,8.70
2020,04,06,10,06,8.70
2020,04,06,10,07,8.70
2020,04,06,10,08,8.70
2020,04,06,10,09,8.70
2020,04,06,10,10,8.70
2020,04,06,10,11,8.70
2020,04,06,10,12,8.70
2020,04,06,10,13,8.70
2020,04,06,10,14,8.70
2020,04,06,10,15,8.70
2020,04,06,10,16,8.70
2020,04,06,10,17,8.80
2020,04,06,10,18,8.80
2020,04,06,10,19,8.80
2020,04,06,10,20,8.80
2020,04,06,10,21,8.80
2020,04,06,10,22,8.80
2020,04,06,10,23,8.80
2020,04,06,10,24,8.80
2020,04,06,10,25,8.80
2020,04,06,10,26,8.90
2020,04,06,10,27,8.90
2020,04,06,10,28,8.90
2020,04,06,10,29,8.90
2020,04,06,10,30,8.90
2020,04,06,10,31,8.90
2020,04,06,10,32,9.00
2020,04,06,10,33,9.00
2020,04,06,10,34,9.00
2020,04,06,10,35,9.10
2020,04,06,10,36,9.20
2020,04,06,10,37,9.20
2020,04,06,10,38,9.20
2020,04,06,10,39,9.20
2020,04,06,10,40,9.30
2020,04,06,10,41,9.30
2020,04,06,10,42,9.30
2020,04,06,10,43,9.30
2020,04,06,10,44,9.30
2020,04,06,10,45,9.30
2020,04,06,10,46,9.40
2020,04,06,10,47,9.40
2020,04,06,10,48,9.40
2020,04,06,10,49,9.40
2020,04,06,10,50,9.50
2020,04,06,10,51,9.50
2020,04,06,10,52,9.60
2020,04,06,10,53,9.60
2020,04,06,10,54,9.70
2020,04,06,10,55,9.70
2020,04,06,10,56,9.80
2020,04,06,10,57,9.80
2020,04,06,10,58,9.90
2020,04,06,10,59,9.90
2020,04,06,11,00,10.00
2020,04,06,11,01,10.00
2020,04,06,11,02,10.10
2020,04,06,11,03,10.10
2020,04,06,11,04,10.10
2020,04,06,11,05,10.10
2020,04,06,11,06,10.10
2020,04,06,11,07,10.10
2020,04,06,11,08,10.00
2020,04,06,11,09,10.00
2020,04,06,11,10,10.00
2020,04,06,11,11,9.90
2020,04,06,11,12,9.90
2020,04,06,11,13,9.90
2020,04,06,11,14,10.00
2020,04,06,11,15,10.00
2020,04,06,11,16,10.10
2020,04,06,11,17,10.10
2020,04,06,11,18,10.10
2020,04,06,11,19,10.10
2020,04,06,11,20,10.10
2020,04,06,11,21,10.10
2020,04,06,11,22,10.10
2020,04,06,11,23,10.10
2020,04,06,11,24,9.90
2020,04,06,11,25,9.70
2020,04,06,11,26,9.60
2020,04,06,11,27,9.50
2020,04,06,11,28,9.50
2020,04,06,11,29,9.40
2020,04,06,11,30,9.30
2020,04,06,11,31,9.30
2020,04,06,11,32,9.30
2020,04,06,11,33,9.20
2020,04,06,11,34,9.10
2020,04,06,11,35,9.00
2020,04,06,11,36,9.00
2020,04,06,11,37,8.90
2020,04,06,11,38,8.90
2020,04,06,11,39,8.90
2020,04,06,11,40,8.90
2020,04,06,11,41,8.90
2020,04,06,11,42,8.90
2020,04,06,11,43,8.90
2020,04,06,11,44,8.90
2020,04,06,11,45,8.90
2020,04,06,11,46,8.90
2020,04,06,11,47,8.90
2020,04,06,11,48,8.90
2020,04,06,11,49,8.90
2020,04,06,11,50,8.90
2020,04,06,11,51,8.90
2020,04,06,11,52,8.90
2020,04,06,11,53,8.90
2020,04,06,11,54,8.90
2020,04,06,11,55,8.90
2020,04,06,11,56,8.80
2020,04,06,11,57,8.80
2020,04,06,11,58,8.80
2020,04,06,11,59,8.90
2020,04,06,12,00,8.90
2020,04,06,12,01,8.90
2020,04,06,12,02,8.90
2020,04,06,12,03,8.90
2020,04,06,12,04,8.90
2020,04,06,12,05,8.90
2020,04,06,12,06,8.90
2020,04,06,12,07,8.90
2020,04,06,12,08,8.90
2020,04,06,12,09,8.90
2020,04,06,12,10,9.00
2020,04,06,12,11,9.00
2020,04,06,12,12,9.00
2020,04,06,12,13,9.00
2020,04,06,12,14,9.10
2020,04,06,12,15,9.10
2020,04,06,12,16,9.10
2020,04,06,12,17,9.20
2020,04,06,12,18,9.20
2020,04,06,12,19,9.20
2020,04,06,12,20,9.30
2020,04,06,12,21,9.30
2020,04,06,12,22,9.30
2020,04,06,12,23,9.40
2020,04,06,12,24,9.40
2020,04,06,12,25,9.50
2020,04,06,12,26,9.50
2020,04,06,12,27,9.60
2020,04,06,12,28,9.60
2020,04,06,12,29,9.70
2020,04,06,12,30,9.80
2020,04,06,12,31,9.90
2020,04,06,12,32,9.90
2020,04,06,12,33,9.90
2020,04,06,12,34,10.00
2020,04,06,12,35,10.00
2020,04,06,12,36,10.10
2020,04,06,12,37,10.10
2020,04,06,12,38,10.20
2020,04,06,12,39,10.20
2020,04,06,12,40,10.30
2020,04,06,12,41,10.30
2020,04,06,12,42,10.30
2020,04,06,12,43,10.40
2020,04,06,12,44,10.40
2020,04,06,12,45,10.40
2020,04,06,12,46,10.50
2020,04,06,12,47,10.50
2020,04,06,12,48,10.60
2020,04,06,12,49,10.60
2020,04,06,12,50,10.70
2020,04,06,12,51,10.70
2020,04,06,12,52,10.80
2020,04,06,12,53,10.80
2020,04,06,12,54,10.90
2020,04,06,12,55,10.90
2020,04,06,12,56,10.90
2020,04,06,12,57,10.90
2020,04,06,12,58,10.90
2020,04,06,12,59,10.90
2020,04,06,13,00,10.80
2020,04,06,13,01,10.80
2020,04,06,13,02,10.80
2020,04,06,13,03,10.90
2020,04,06,13,04,10.90
2020,04,06,13,05,10.90
2020,04,06,13,06,10.90
2020,04,06,13,07,10.80
2020,04,06,13,08,10.80
2020,04,06,13,09,10.80
2020,04,06,13,10,10.80
2020,04,06,13,11,10.80
2020,04,06,13,12,10.70
2020,04,06,13,13,10.70
2020,04,06,13,14,10.70
2020,04,06,13,15,10.70
2020,04,06,13,16,10.60
2020,04,06,13,17,10.60
2020,04,06,13,18,10.60
2020,04,06,13,19,10.60
2020,04,06,13,20,10.60
2020,04,06,13,21,10.60
2020,04,06,13,22,10.60
2020,04,06,13,23,10.60
2020,04,06,13,24,10.60
2020,04,06,13,25,10.60
2020,04,06,13,26,10.60
2020,04,06,13,27,10.60
2020,04,06,13,28,10.60
2020,04,06,13,29,10.60
2020,04,06,13,30,10.60
2020,04,06,13,31,10.60
2020,04,06,13,32,10.60
2020,04,06,13,33,10.60
2020,04,06,13,34,10.60
2020,04,06,13,35,10.60
2020,04,06,13,36,10.60
2020,04,06,13,37,10.60
2020,04,06,13,38,10.60
2020,04,06,13,39,10.60
2020,04,06,13,40,10.50
2020,04,06,13,41,10.60
2020,04,06,13,42,10.60
2020,04,06,13,43,10.60
2020,04,06,13,44,10.60
2020,04,06,13,45,10.60
2020,04,06,13,46,10.60
2020,04,06,13,47,10.60
2020,04,06,13,48,10.70
2020,04,06,13,49,10.70
2020,04,06,13,50,10.70
2020,04,06,13,51,10.70
2020,04,06,13,52,10.70
2020,04,06,13,53,10.70
2020,04,06,13,54,10.70
2020,04,06,13,55,10.80
2020,04,06,13,56,10.80
2020,04,06,13,57,10.80
2020,04,06,13,58,10.80
2020,04,06,13,59,10.80
2020,04,06,14,00,10.80
2020,04,06,14,01,10.90
2020,04,06,14,02,10.90
2020,04,06,14,03,10.90
2020,04,06,14,04,10.90
2020,04,06,14,05,10.90
2020,04,06,14,06,10.90
2020,04,06,14,07,10.90
2020,04,06,14,08,10.90
2020,04,06,14,09,10.90
2020,04,06,14,10,10.90
2020,04,06,14,11,10.90
2020,04,06,14,12,10.80
2020,04,06,14,13,10.80
2020,04,06,14,14,10.80
2020,04,06,14,15,10.80
2020,04,06,14,16,10.80
2020,04,06,14,17,10.70
2020,04,06,14,18,10.70
2020,04,06,14,19,10.70
2020,04,06,14,20,10.70
2020,04,06,14,21,10.70
2020,04,06,14,22,10.70
2020,04,06,14,23,10.70
2020,04,06,14,24,10.70
2020,04,06,14,25,10.70
2020,04,06,14,26,10.70
2020,04,06,14,27,10.60
2020,04,06,14,28,10.60
2020,04,06,14,29,10.60
2020,04,06,14,30,10.60
2020,04,06,14,31,10.60
2020,04,06,14,32,10.60
2020,04,06,14,33,10.60
2020,04,06,14,34,10.70
2020,04,06,14,35,10.70
2020,04,06,14,36,10.70
2020,04,06,14,37,10.70
2020,04,06,14,38,10.70
2020,04,06,14,39,10.70
2020,04,06,14,40,10.70
2020,04,06,14,41,10.70
2020,04,06,14,42,10.70
2020,04,06,14,43,10.70
2020,04,06,14,44,10.70
2020,04,06,14,45,10.70
2020,04,06,14,46,10.70
2020,04,06,14,47,10.70
2020,04,06,14,48,10.70
2020,04,06,14,49,10.80
2020,04,06,14,50,10.80
2020,04,06,14,51,10.80
2020,04,06,14,52,10.80
2020,04,06,14,53,10.80
2020,04,06,14,54,10.90
2020,04,06,14,55,10.90
2020,04,06,14,56,10.90
2020,04,06,14,57,10.90
2020,04,06,14,58,11.00
2020,04,06,14,59,11.00
2020,04,06,15,00,11.00
2020,04,06,15,01,11.00
2020,04,06,15,02,11.00
2020,04,06,15,03,11.00
2020,04,06,15,04,11.00
2020,04,06,15,05,11.00
2020,04,06,15,06,11.10
2020,04,06,15,07,11.10
2020,04,06,15,08,11.10
2020,04,06,15,09,11.10
2020,04,06,15,10,11.10
2020,04,06,15,11,11.20
2020,04,06,15,12,11.10
2020,04,06,15,13,11.20
2020,04,06,15,14,11.10
2020,04,06,15,15,11.10
2020,04,06,15,16,11.10
2020,04,06,15,17,11.10
2020,04,06,15,18,11.10
2020,04,06,15,19,11.10
2020,04,06,15,20,11.10
2020,04,06,15,21,11.10
2020,04,06,15,22,11.20
2020,04,06,15,23,11.20
2020,04,06,15,24,11.20
2020,04,06,15,25,11.20
2020,04,06,15,26,11.20
2020,04,06,15,27,11.20
2020,04,06,15,28,11.20
2020,04,06,15,29,11.20
2020,04,06,15,30,11.10
2020,04,06,15,31,11.10
2020,04,06,15,32,11.10
2020,04,06,15,33,11.00
2020,04,06,15,34,11.00
2020,04,06,15,35,10.90
2020,04,06,15,36,10.90
2020,04,06,15,37,10.80
2020,04,06,15,38,10.80
2020,04,06,15,39,10.80
2020,04,06,15,40,10.80
2020,04,06,15,41,10.80
2020,04,06,15,42,10.80
2020,04,06,15,43,10.80
2020,04,06,15,44,10.80
2020,04,06,15,45,10.80
2020,04,06,15,46,10.80
2020,04,06,15,47,10.80
2020,04,06,15,48,10.80
2020,04,06,15,49,10.80
2020,04,06,15,50,10.80
2020,04,06,15,51,10.80
2020,04,06,15,52,10.80
2020,04,06,15,53,10.80
2020,04,06,15,54,10.80
2020,04,06,15,55,10.80
2020,04,06,15,56,10.80
2020,04,06,15,57,10.80
2020,04,06,15,58,10.80
2020,04,06,15,59,10.70
2020,04,06,16,00,10.70
2020,04,06,16,01,10.80
2020,04,06,16,02,10.80
2020,04,06,16,03,10.80
2020,04,06,16,04,10.80
2020,04,06,16,05,10.80
2020,04,06,16,06,10.80
2020,04,06,16,07,10.80
2020,04,06,16,08,10.80
2020,04,06,16,09,10.80
2020,04,06,16,10,10.80
2020,04,06,16,11,10.80
2020,04,06,16,12,10.80
2020,04,06,16,13,10.80
2020,04,06,16,14,10.80
2020,04,06,16,15,10.80
2020,04,06,16,16,10.80
2020,04,06,16,17,10.80
2020,04,06,16,18,10.90
2020,04,06,16,19,10.90
2020,04,06,16,20,10.90
2020,04,06,16,21,10.90
2020,04,06,16,22,10.90
2020,04,06,16,23,10.90
2020,04,06,16,24,10.90
2020,04,06,16,25,10.90
2020,04,06,16,26,10.90
2020,04,06,16,27,10.90
2020,04,06,16,28,10.90
2020,04,06,16,29,10.90
2020,04,06,16,30,10.90
2020,04,06,16,31,10.90
2020,04,06,16,32,10.80
2020,04,06,16,33,10.80
2020,04,06,16,34,10.80
2020,04,06,16,35,10.70
2020,04,06,16,36,10.70
2020,04,06,16,37,10.70
2020,04,06,16,38,10.70
2020,04,06,16,39,10.70
2020,04,06,16,40,10.70
2020,04,06,16,41,10.70
2020,04,06,16,42,10.70
2020,04,06,16,43,10.70
2020,04,06,16,44,10.70
2020,04,06,16,45,10.70
2020,04,06,16,46,10.70
2020,04,06,16,47,10.70
2020,04,06,16,48,10.70
2020,04,06,16,49,10.60
2020,04,06,16,50,10.60
2020,04,06,16,51,10.50
2020,04,06,16,52,10.50
2020,04,06,16,53,10.50
2020,04,06,16,54,10.40
2020,04,06,16,55,10.40
2020,04,06,16,56,10.40
2020,04,06,16,57,10.30
2020,04,06,16,58,10.30
2020,04,06,16,59,10.30
2020,04,06,17,00,10.30
2020,04,06,17,01,10.30
2020,04,06,17,02,10.30
2020,04,06,17,03,10.30
2020,04,06,17,04,10.30
2020,04,06,17,05,10.20
2020,04,06,17,06,10.20
2020,04,06,17,07,10.10
2020,04,06,17,08,10.10
2020,04,06,17,09,10.10
2020,04,06,17,10,10.10
2020,04,06,17,11,10.10
2020,04,06,17,12,10.00
2020,04,06,17,13,10.00
2020,04,06,17,14,10.00
2020,04,06,17,15,10.00
2020,04,06,17,16,10.00
2020,04,06,17,17,10.00
2020,04,06,17,18,9.90
2020,04,06,17,19,10.00
2020,04,06,17,20,10.00
2020,04,06,17,21,10.00
2020,04,06,17,22,10.00
2020,04,06,17,23,10.00
2020,04,06,17,24,9.90
2020,04,06,17,25,9.90
2020,04,06,17,26,9.90
2020,04,06,17,27,9.90
2020,04,06,17,28,9.80
2020,04,06,17,29,9.80
2020,04,06,17,30,9.80
2020,04,06,17,31,9.80
2020,04,06,17,32,9.80
2020,04,06,17,33,9.80
2020,04,06,17,34,9.80
2020,04,06,17,35,9.70
2020,04,06,17,36,9.70
2020,04,06,17,37,9.70
2020,04,06,17,38,9.70
2020,04,06,17,39,9.70
2020,04,06,17,40,9.80
2020,04,06,17,41,9.80
2020,04,06,17,42,9.80
2020,04,06,17,43,9.80
2020,04,06,17,44,9.70
2020,04,06,17,45,9.70
2020,04,06,17,46,9.70
2020,04,06,17,47,9.70
2020,04,06,17,48,9.70
2020,04,06,17,49,9.70
2020,04,06,17,50,9.60
2020,04,06,17,51,9.60
2020,04,06,17,52,9.60
2020,04,06,17,53,9.60
2020,04,06,17,54,9.60
2020,04,06,17,55,9.60
2020,04,06,17,56,9.60
2020,04,06,17,57,9.70
2020,04,06,17,58,9.70
2020,04,06,17,59,9.70
2020,04,06,18,00,9.70
2020,04,06,18,01,9.70
2020,04,06,18,02,9.80
2020,04,06,18,03,9.80
2020,04,06,18,04,9.80
2020,04,06,18,05,9.80
2020,04,06,18,06,9.80
2020,04,06,18,07,9.90
2020,04,06,18,08,9.90
2020,04,06,18,09,9.90
2020,04,06,18,10,9.90
2020,04,06,18,11,9.90
2020,04,06,18,12,9.90
2020,04,06,18,13,10.00
2020,04,06,18,14,10.00
2020,04,06,18,15,10.00
2020,04,06,18,16,10.00
2020,04,06,18,17,10.00
2020,04,06,18,18,10.00
2020,04,06,18,19,10.00
2020,04,06,18,20,10.00
2020,04,06,18,21,10.00
2020,04,06,18,22,10.00
2020,04,06,18,23,10.10
2020,04,06,18,24,10.10
2020,04,06,18,25,10.10
2020,04,06,18,26,10.20
2020,04,06,18,27,10.20
2020,04,06,18,28,10.30
2020,04,06,18,29,10.40
2020,04,06,18,30,10.40
2020,04,06,18,31,10.50
2020,04,06,18,32,10.60
2020,04,06,18,33,10.70
2020,04,06,18,34,10.70
2020,04,06,18,35,10.90
2020,04,06,18,36,11.00
2020,04,06,18,37,11.10
2020,04,06,18,38,11.30
2020,04,06,18,39,11.40
2020,04,06,18,40,11.60
2020,04,06,18,41,11.70
2020,04,06,18,42,11.90
2020,04,06,18,43,12.10
2020,04,06,18,44,12.30
2020,04,06,18,45,12.60
2020,04,06,18,46,12.80
2020,04,06,18,47,13.00
2020,04,06,18,48,13.20
2020,04,06,18,49,13.30
2020,04,06,18,50,13.40
2020,04,06,18,51,13.50
2020,04,06,18,52,13.60
2020,04,06,18,53,13.70
2020,04,06,18,54,13.70
2020,04,06,18,55,13.70
2020,04,06,18,56,13.70
2020,04,06,18,57,13.80
2020,04,06,18,58,13.80
2020,04,06,18,59,13.80
2020,04,06,19,00,13.80
2020,04,06,19,01,13.80
2020,04,06,19,02,13.80
2020,04,06,19,03,13.70
2020,04,06,19,04,13.70
2020,04,06,19,05,13.70
2020,04,06,19,06,13.70
2020,04,06,19,07,13.70
2020,04,06,19,08,13.70
2020,04,06,19,09,13.70
2020,04,06,19,10,13.70
2020,04,06,19,11,13.60
2020,04,06,19,12,13.60
2020,04,06,19,13,13.60
2020,04,06,19,14,13.60
2020,04,06,19,15,13.60
2020,04,06,19,16,13.60
2020,04,06,19,17,13.50
2020,04,06,19,18,13.50
2020,04,06,19,19,13.50
2020,04,06,19,20,13.40
2020,04,06,19,21,13.40
2020,04,06,19,22,13.40
2020,04,06,19,23,13.40
2020,04,06,19,24,13.30
2020,04,06,19,25,13.30
2020,04,06,19,26,13.30
2020,04,06,19,27,13.30
2020,04,06,19,28,13.20
2020,04,06,19,29,13.20
2020,04,06,19,30,13.20
2020,04,06,19,31,13.20
2020,04,06,19,32,13.20
2020,04,06,19,33,13.10
2020,04,06,19,34,13.10
2020,04,06,19,35,13.10
2020,04,06,19,36,13.10
2020,04,06,19,37,13.10
2020,04,06,19,38,13.00
2020,04,06,19,39,13.00
2020,04,06,19,40,12.90
2020,04,06,19,41,12.90
2020,04,06,19,42,12.90
2020,04,06,19,43,12.90
2020,04,06,19,44,12.90
2020,04,06,19,45,12.80
2020,04,06,19,46,12.80
2020,04,06,19,47,12.80
2020,04,06,19,48,12.70
2020,04,06,19,49,12.70
2020,04,06,19,50,12.70
2020,04,06,19,51,12.70
2020,04,06,19,52,12.70
2020,04,06,19,53,12.60
2020,04,06,19,54,12.60
2020,04,06,19,55,12.60
2020,04,06,19,56,12.60
2020,04,06,19,57,12.50
2020,04,06,19,58,12.50
2020,04,06,19,59,12.50
2020,04,06,20,00,12.40
2020,04,06,20,01,12.40
2020,04,06,20,02,12.40